This is the latest recevied weather packets stored in our database for station/object DJ2RF. If no packets are shown the sender has not sent any weather packets the latest 10 day(s).
| Time | Temp. | Humidity | Pressure | Rain* | Wind** | Luminosity | Snow |
|---|---|---|---|---|---|---|---|
| 1778159610 | 15° C | 72% | 1016.1 hPa | 0 mm | - | - | - |
| 1778159028 | 14.44° C | 76% | 1016.1 hPa | 0 mm | - | - | - |
| 1778158482 | 13.89° C | 75% | 1016.2 hPa | 0 mm | - | - | - |
| 1778157929 | 13.89° C | 77% | 1016.2 hPa | 0 mm | - | - | - |
| 1778157383 | 12.78° C | 79% | 1016.2 hPa | 0 mm | - | - | - |
| 1778156786 | 13.33° C | 78% | 1016.2 hPa | 0 mm | - | - | - |
| 1778156277 | 13.33° C | 79% | 1016.2 hPa | 0 mm | - | - | - |
| 1778155786 | 13.33° C | 78% | 1016.1 hPa | 0 mm | - | - | - |
| 1778155280 | 13.33° C | 79% | 1016.1 hPa | 0 mm | - | - | - |
| 1778154728 | 12.78° C | 79% | 1016.1 hPa | 0 mm | - | - | - |
| 1778154178 | 12.22° C | 82% | 1016 hPa | 0.25 mm | - | - | - |
| 1778153598 | 12.22° C | 82% | 1016 hPa | 0.51 mm | - | - | - |
| 1778153119 | 12.22° C | 81% | 1016 hPa | 0.51 mm | - | - | - |
| 1778152581 | 11.67° C | 84% | 1016.1 hPa | 0.51 mm | - | - | - |
| 1778151989 | 11.11° C | 84% | 1016.2 hPa | 0.76 mm | - | - | - |
| 1778151459 | 11.67° C | 81% | 1016.1 hPa | 0.76 mm | - | - | - |
| 1778150901 | 12.78° C | 84% | 1016 hPa | 0.51 mm | - | - | - |
| 1778150372 | 12.78° C | 82% | 1016 hPa | 0.51 mm | - | - | - |
| 1778149833 | 12.78° C | 83% | 1015.9 hPa | 0.51 mm | - | - | - |
| 1778149240 | 12.22° C | 83% | 1015.9 hPa | 0.51 mm | - | - | - |
| 1778148677 | 12.22° C | 82% | 1015.9 hPa | 0.25 mm | - | - | - |
| 1778148156 | 12.22° C | 81% | 1015.8 hPa | 0.25 mm | - | - | - |
| 1778147582 | 12.22° C | 80% | 1015.8 hPa | 0 mm | - | - | - |
| 1778147056 | 12.22° C | 80% | 1015.7 hPa | 0 mm | - | - | - |
| 1778146572 | 12.22° C | 80% | 1015.6 hPa | 0 mm | - | - | - |
* Rain latest hour (hover to see other rain measurements)
** Current wind speed in m/s (hover to see current wind gust speed)